Terug naar catalogus

ATLAS CENTAUR R/B

ActiefGTO
NORAD 8621·ROCKET BODY·🇺🇸 United States

Gelanceerd Jan 29, 1976 vanaf Cape Canaveral Space Force Station

Loading…

TLE

VerouderdSource: Space-Track

Epoch: Sep 14, 2026, 04:31 UTC

1  8621U 76010B   26257.18849725 -.00000075  00000-0  82402-3 0  9999
2  8621  21.4864  73.2682 7202431 306.2062 327.5413  2.20732163287525

Volg ATLAS CENTAUR R/B in realtime met AllMySat

Download on the App Store